EW5962 Weather Reports


time (UTC)temp
C
wind
direction
speed
KPH
gust
KPH
rain 1hr
cm
rain 24hr
cm
rain mn
cm
humidity
%
barometer
mb
20260903020003 25 198 0.0 0.0 0.00 0.00 0.00 87 1015.8
20260903015509 25 198 0.0 0.0 0.00 0.00 0.00 87 1015.8
20260903015105 25 198 0.0 0.0 0.00 0.00 0.00 86 1015.9
20260903014503 25 198 0.0 0.0 0.00 0.00 0.00 86 1015.8
20260903014009 25 198 0.0 0.0 0.00 0.00 0.00 86 1015.8
20260903013603 25 198 0.0 0.0 0.00 0.00 0.00 86 1015.8
20260903013007 26 198 0.0 0.0 0.00 0.00 0.00 85 1015.8
20260903012511 26 198 0.0 0.0 0.00 0.00 0.00 85 1015.7
20260903012103 26 198 0.0 0.0 0.00 0.00 0.00 85 1015.7
20260903011503 26 198 0.0 0.0 0.00 0.00 0.00 84 1015.6
20260903011010 26 198 0.0 0.0 0.00 0.00 0.00 84 1015.5
20260903010603 26 198 0.0 0.0 0.00 0.00 0.00 83 1015.5
20260903010003 26 198 0.0 0.0 0.00 0.00 0.00 83 1015.4
20260903005509 26 198 0.0 0.0 0.00 0.00 0.00 82 1015.4
20260903005103 26 198 0.0 0.0 0.00 0.00 0.00 82 1015.4
20260903004512 27 198 0.0 0.0 0.00 0.00 0.00 81 1015.4
20260903004009 27 198 0.0 0.0 0.00 0.00 0.00 81 1015.3
20260903003603 27 198 0.0 0.0 0.00 0.00 0.00 80 1015.2
20260903003004 27 198 0.0 0.0 0.00 0.00 0.00 79 1015.1
20260903002509 27 198 0.0 0.0 0.00 0.00 0.00 79 1015.1
20260903002106 27 198 0.0 0.0 0.00 0.00 0.00 78 1015.1
20260903001506 28 198 0.0 0.0 0.00 0.00 0.00 78 1015.0
20260903001011 28 198 0.0 0.0 0.00 0.00 0.00 77 1015.0
20260903000604 28 198 0.0 0.0 0.00 0.00 0.00 76 1015.0
20260903000005 28 198 0.0 0.0 0.00 0.00 0.00 76 1015.0
20260902235512 28 198 0.0 0.0 0.00 0.00 0.00 75 1014.9
20260902235104 28 198 0.0 0.0 0.00 0.00 0.00 74 1014.9
20260902234505 29 198 0.0 0.0 0.00 0.00 0.00 73 1014.9
20260902234009 29 198 0.0 0.0 0.00 0.00 0.00 73 1014.9
20260902233603 29 198 0.0 0.0 0.00 0.00 0.00 73 1014.9
20260902233004 30 198 0.0 0.0 0.00 0.00 0.00 72 1014.9
20260902232513 30 198 0.0 0.0 0.00 0.00 0.00 71 1014.8
20260902232103 30 198 0.0 0.0 0.00 0.00 0.00 71 1014.8
20260902231508 30 198 0.0 0.0 0.00 0.00 0.00 69 1014.8
20260902231011 31 198 0.0 0.0 0.00 0.00 0.00 68 1014.8
20260902230603 31 198 0.0 0.0 0.00 0.00 0.00 68 1014.8
20260902230003 31 198 0.0 0.0 0.00 0.00 0.00 66 1014.7
20260902225509 31 198 0.0 0.0 0.00 0.00 0.00 66 1014.8
20260902225106 31 198 0.0 0.0 0.00 0.00 0.00 64 1014.7
20260902224503 32 198 0.0 0.0 0.00 0.00 0.00 64 1014.7
20260902224009 32 198 0.0 0.0 0.00 0.00 0.00 61 1014.6
20260902223603 32 198 0.0 0.0 0.00 0.00 0.00 62 1014.6
20260902223003 32 198 0.0 0.0 0.00 0.00 0.00 61 1014.6
20260902222511 32 198 0.0 0.0 0.00 0.00 0.00 61 1014.6
20260902222103 32 198 0.0 0.0 0.00 0.00 0.00 60 1014.6
20260902221503 33 194 0.0 0.0 0.00 0.00 0.00 59 1014.6
20260902221009 33 194 0.0 0.0 0.00 0.00 0.00 55 1014.6
20260902220605 33 194 0.0 0.0 0.00 0.00 0.00 59 1014.6
20260902220003 33 194 0.0 0.0 0.00 0.00 0.00 56 1014.7
20260902215515 33 194 0.0 0.0 0.00 0.00 0.00 53 1014.7
20260902215107 33 194 0.0 0.0 0.00 0.00 0.00 53 1014.7
20260902214503 34 194 0.0 0.0 0.00 0.00 0.00 53 1014.8
20260902214010 34 194 0.0 0.0 0.00 0.00 0.00 53 1014.7
20260902213605 35 194 0.0 0.0 0.00 0.00 0.00 52 1014.8
20260902213003 35 194 0.0 0.0 0.00 0.00 0.00 48 1014.8
20260902212509 35 197 0.0 0.0 0.00 0.00 0.00 50 1014.8
20260902212104 35 197 0.0 0.0 0.00 0.00 0.00 45 1014.8
20260902211504 35 197 0.0 1.6 0.00 0.00 0.00 45 1014.7
20260902211009 35 197 0.0 1.6 0.00 0.00 0.00 45 1014.8
20260902210604 36 176 0.0 1.6 0.00 0.00 0.00 47 1014.8
20260902210003 36 231 0.0 1.6 0.00 0.00 0.00 44 1014.8
20260902205508 36 216 0.0 1.6 0.00 0.00 0.00 52 1014.7
20260902205103 36 215 0.0 0.0 0.00 0.00 0.00 51 1014.7
20260902204503 36 215 0.0 0.0 0.00 0.00 0.00 47 1014.8
20260902204010 36 215 0.0 3.2 0.00 0.00 0.00 50 1014.8
20260902203604 36 216 0.0 3.2 0.00 0.00 0.00 48 1014.8
20260902203004 36 207 0.0 0.0 0.00 0.00 0.00 44 1014.9
20260902202510 36 214 0.0 0.0 0.00 0.00 0.00 42 1014.9
20260902202107 36 191 0.0 3.2 0.00 0.00 0.00 47 1014.8
20260902201503 36 191 0.0 3.2 0.00 0.00 0.00 46 1014.9
20260902201009 36 196 0.0 6.4 0.00 0.00 0.00 46 1014.9
20260902200603 37 148 1.6 6.4 0.00 0.00 0.00 43 1014.9
20260902200010 37 170 1.6 4.8 0.00 0.00 0.00 43 1015.0
20260902195511 36 172 0.0 8.0 0.00 0.00 0.00 43 1015.1
20260902195103 36 205 1.6 8.0 0.00 0.00 0.00 44 1015.1
20260902194504 36 176 0.0 6.4 0.00 0.00 0.00 44 1015.2
20260902194010 36 219 0.0 3.2 0.00 0.00 0.00 43 1015.2
20260902193603 36 229 0.0 1.6 0.00 0.00 0.00 43 1015.3
20260902193003 36 224 0.0 1.6 0.00 0.00 0.00 51 1015.3
20260902192510 37 275 0.0 4.8 0.00 0.00 0.00 49 1015.4
20260902192103 37 311 0.0 4.8 0.00 0.00 0.00 44 1015.4
20260902191503 37 294 0.0 8.0 0.00 0.00 0.00 45 1015.5
20260902191010 37 316 1.6 8.0 0.00 0.00 0.00 42 1015.7
20260902190606 37 134 0.0 1.6 0.00 0.00 0.00 47 1015.7
20260902190004 36 312 0.0 6.4 0.00 0.00 0.00 46 1015.7
20260902185510 36 87 0.0 6.4 0.00 0.00 0.00 46 1015.6
20260902185105 36 16 0.0 8.0 0.00 0.00 0.00 46 1015.7
20260902184504 36 349 0.0 8.0 0.00 0.00 0.00 45 1015.8
20260902184009 36 180 0.0 6.4 0.00 0.00 0.00 47 1015.9
20260902183603 36 274 0.0 6.4 0.00 0.00 0.00 48 1016.0
20260902183004 36 1 0.0 6.4 0.00 0.00 0.00 46 1016.0
20260902182509 36 32 0.0 6.4 0.00 0.00 0.00 47 1016.0
20260902182104 35 300 0.0 1.6 0.00 0.00 0.00 53 1016.1
20260902181504 35 237 0.0 1.6 0.00 0.00 0.00 50 1016.1
20260902181009 35 239 0.0 0.0 0.00 0.00 0.00 53 1016.1
20260902180605 34 18 0.0 0.0 0.00 0.00 0.00 56 1016.1
20260902180004 34 348 0.0 0.0 0.00 0.00 0.00 50 1016.1
20260902175509 34 348 0.0 0.0 0.00 0.00 0.00 50 1016.2
20260902175104 34 348 0.0 4.8 0.00 0.00 0.00 50 1016.2
20260902174503 35 301 0.0 6.4 0.00 0.00 0.00 50 1016.2
20260902174009 35 3 0.0 6.4 0.00 0.00 0.00 50 1016.4
20260902173603 35 311 0.0 1.6 0.00 0.00 0.00 50 1016.4
20260902173003 34 162 0.0 3.2 0.00 0.00 0.00 53 1016.4
20260902172509 34 162 0.0 3.2 0.00 0.00 0.00 50 1016.4
20260902172104 35 184 0.0 6.4 0.00 0.00 0.00 53 1016.5
20260902171504 35 174 1.6 6.4 0.00 0.00 0.00 50 1016.6
20260902171009 34 212 1.6 6.4 0.00 0.00 0.00 51 1016.7
20260902170603 34 221 0.0 8.0 0.00 0.00 0.00 54 1016.7
20260902170003 35 218 1.6 9.7 0.00 0.00 0.00 51 1016.8
20260902165510 35 181 3.2 9.7 0.00 0.00 0.00 51 1016.8
20260902165106 35 169 0.0 4.8 0.00 0.00 0.00 50 1016.9
20260902164503 35 1 3.2 4.8 0.00 0.00 0.00 50 1016.9
20260902164009 35 78 0.0 4.8 0.00 0.00 0.00 53 1016.9
20260902163602 35 41 0.0 4.8 0.00 0.00 0.00 52 1016.9
20260902163002 34 357 0.0 8.0 0.00 0.00 0.00 54 1017.0
20260902162509 34 1 1.6 8.0 0.00 0.00 0.00 51 1017.1
20260902162103 34 354 3.2 8.0 0.00 0.00 0.00 53 1017.1
20260902161504 33 9 0.0 4.8 0.00 0.00 0.00 54 1017.2
20260902161013 33 201 1.6 4.8 0.00 0.00 0.00 56 1017.2
20260902160603 33 209 0.0 6.4 0.00 0.00 0.00 56 1017.2
20260902160110 33 175 1.6 6.4 0.00 0.00 0.00 56 1017.3
20260902155509 33 210 0.0 4.8 0.00 0.00 0.00 57 1017.3
20260902155103 33 223 0.0 3.2 0.00 0.00 0.00 53 1017.4
20260902154502 33 348 0.0 4.8 0.00 0.00 0.00 54 1017.4
20260902154011 32 354 0.0 3.2 0.00 0.00 0.00 58 1017.4
20260902153604 32 325 0.0 3.2 0.00 0.00 0.00 58 1017.3
20260902153003 32 339 0.0 1.6 0.00 0.00 0.00 64 1017.4
20260902152509 32 309 0.0 1.6 0.00 0.00 0.00 67 1017.4
20260902152103 32 354 0.0 4.8 0.00 0.00 0.00 65 1017.4
20260902151503 31 349 1.6 4.8 0.00 0.00 0.00 60 1017.3
20260902151011 31 257 0.0 8.0 0.00 0.00 0.00 62 1017.4
20260902150603 31 257 0.0 8.0 0.00 0.00 0.00 67 1017.3
20260902150003 30 333 0.0 4.8 0.00 0.00 0.00 66 1017.4
20260902145510 30 327 0.0 4.8 0.00 0.00 0.00 66 1017.3
20260902145102 29 344 0.0 3.2 0.00 0.00 0.00 71 1017.3
20260902144503 28 193 0.0 1.6 0.00 0.00 0.00 78 1017.3
20260902144011 28 47 0.0 4.8 0.00 0.00 0.00 72 1017.3
20260902143604 28 47 0.0 4.8 0.00 0.00 0.00 77 1017.3
20260902143003 28 315 0.0 8.0 0.00 0.00 0.00 75 1017.2
20260902142510 27 306 0.0 8.0 0.00 0.00 0.00 80 1017.2
20260902142105 27 349 0.0 4.8 0.00 0.00 0.00 80 1017.1
20260902141503 26 347 0.0 3.2 0.00 0.00 0.00 79 1017.0
20260902141010 26 345 0.0 3.2 0.00 0.00 0.00 81 1017.0
20260902140607 25 315 0.0 4.8 0.00 0.00 0.00 87 1017.0
20260902140006 25 317 0.0 4.8 0.00 0.00 0.00 89 1017.0
20260902135509 24 252 0.0 1.6 0.00 0.00 0.00 93 1017.1
20260902135105 24 252 0.0 1.6 0.00 0.00 0.00 93 1017.1
20260902134503 23 252 0.0 0.0 0.00 0.00 0.00 95 1017.1
20260902134009 23 252 0.0 0.0 0.00 0.00 0.00 96 1017.1
20260902133603 23 252 0.0 0.0 0.00 0.00 0.00 96 1017.1
20260902133004 23 252 0.0 0.0 0.00 0.00 0.00 97 1017.2
20260902132514 22 252 0.0 0.0 0.00 0.00 0.00 97 1017.1
20260902132103 22 252 0.0 1.6 0.00 0.00 0.00 97 1017.2
20260902131503 22 252 0.0 1.6 0.00 0.00 0.00 97 1017.3
20260902131010 22 252 0.0 1.6 0.00 0.00 0.00 97 1017.3
20260902130604 22 252 0.0 1.6 0.00 0.00 0.00 97 1017.3
20260902130002 22 231 0.0 0.0 0.00 0.00 0.00 97 1017.3
20260902125509 21 231 0.0 0.0 0.00 0.00 0.00 97 1017.3
20260902124503 21 231 0.0 0.0 0.00 0.00 0.00 97 1017.5
20260902124009 21 231 0.0 0.0 0.00 0.00 0.00 97 1017.5
20260902123606 21 231 0.0 0.0 0.00 0.00 0.00 97 1017.5
20260902123002 21 231 0.0 0.0 0.00 0.00 0.00 97 1017.5
20260902122511 21 231 0.0 0.0 0.00 0.00 0.00 97 1017.5
20260902122103 21 231 0.0 0.0 0.00 0.00 0.00 97 1017.5
20260902121502 20 231 0.0 0.0 0.00 0.00 0.00 96 1017.5
20260902121009 20 231 0.0 0.0 0.00 0.00 0.00 97 1017.4
20260902120604 20 231 0.0 0.0 0.00 0.00 0.00 97 1017.4
20260902120004 20 231 0.0 0.0 0.00 0.00 0.00 96 1017.3
20260902115509 20 231 0.0 0.0 0.00 0.00 0.00 96 1017.3
20260902115102 20 231 0.0 0.0 0.00 0.00 0.00 96 1017.3
20260902114503 20 231 0.0 0.0 0.00 0.00 0.00 96 1017.2
20260902114010 20 231 0.0 0.0 0.00 0.00 0.00 96 1017.2
20260902113604 20 231 0.0 0.0 0.00 0.00 0.00 96 1017.2
20260902113003 20 231 0.0 0.0 0.00 0.00 0.00 96 1017.1
20260902112510 20 231 0.0 0.0 0.00 0.00 0.00 96 1017.0
20260902112104 20 231 0.0 0.0 0.00 0.00 0.00 96 1016.9
20260902111505 20 231 0.0 0.0 0.00 0.00 0.00 96 1016.9
20260902111009 20 231 0.0 0.0 0.00 0.00 0.00 96 1017.0
20260902110606 20 231 0.0 0.0 0.00 0.00 0.00 96 1016.9
20260902110005 20 231 0.0 0.0 0.00 0.00 0.00 96 1016.8
20260902105512 20 231 0.0 0.0 0.00 0.00 0.00 96 1016.8
20260902105102 20 231 0.0 0.0 0.00 0.00 0.00 96 1016.9
20260902104503 20 231 0.0 0.0 0.00 0.00 0.00 96 1016.9
20260902104009 20 231 0.0 0.0 0.00 0.00 0.00 96 1016.7
20260902103605 20 231 0.0 0.0 0.00 0.00 0.00 96 1016.7
20260902103003 20 231 0.0 0.0 0.00 0.00 0.00 96 1016.7
20260902102509 20 231 0.0 0.0 0.00 0.00 0.00 96 1016.7
20260902102107 20 231 0.0 0.0 0.00 0.00 0.00 96 1016.7
20260902101504 20 231 0.0 0.0 0.00 0.00 0.00 96 1016.7
20260902101009 20 231 0.0 0.0 0.00 0.00 0.00 96 1016.7
20260902100603 20 231 0.0 0.0 0.00 0.00 0.00 95 1016.7
20260902100003 20 231 0.0 0.0 0.00 0.00 0.00 95 1016.6
20260902095510 20 231 0.0 0.0 0.00 0.00 0.00 95 1016.6
20260902095103 20 231 0.0 0.0 0.00 0.00 0.00 96 1016.6
20260902094503 21 231 0.0 0.0 0.00 0.00 0.00 95 1016.7
20260902094012 21 231 0.0 0.0 0.00 0.00 0.00 95 1016.6
20260902093605 21 231 0.0 0.0 0.00 0.00 0.00 95 1016.6
20260902093002 21 231 0.0 0.0 0.00 0.00 0.00 95 1016.5
20260902092512 21 231 0.0 0.0 0.00 0.00 0.00 95 1016.5
20260902092105 21 231 0.0 0.0 0.00 0.00 0.00 95 1016.6
20260902091503 21 231 0.0 0.0 0.00 0.00 0.00 95 1016.5
20260902091008 21 231 0.0 0.0 0.00 0.00 0.00 95 1016.5
20260902090603 21 231 0.0 0.0 0.00 0.00 0.00 95 1016.5
20260902090002 21 231 0.0 0.0 0.00 0.00 0.00 95 1016.4
20260902085508 21 231 0.0 0.0 0.00 0.00 0.00 95 1016.3
20260902085104 21 231 0.0 0.0 0.00 0.00 0.00 95 1016.4
20260902084502 21 231 0.0 0.0 0.00 0.00 0.00 95 1016.3
20260902084010 21 231 0.0 0.0 0.00 0.00 0.00 95 1016.3
20260902083602 21 231 0.0 0.0 0.00 0.00 0.00 95 1016.3
20260902083002 21 231 0.0 0.0 0.00 0.00 0.00 95 1016.3
20260902082509 21 231 0.0 0.0 0.00 0.00 0.00 95 1016.3
20260902082103 21 231 0.0 0.0 0.00 0.00 0.00 95 1016.3
20260902081505 21 231 0.0 0.0 0.00 0.00 0.00 95 1016.2
20260902081009 21 231 0.0 0.0 0.00 0.00 0.00 95 1016.2
20260902080603 21 231 0.0 0.0 0.00 0.00 0.00 95 1016.1
20260902080002 21 231 0.0 0.0 0.00 0.00 0.00 95 1016.1
20260902075509 21 231 0.0 0.0 0.00 0.00 0.00 95 1016.1
20260902075103 21 231 0.0 0.0 0.00 0.00 0.00 95 1016.1
20260902074503 21 231 0.0 0.0 0.00 0.00 0.00 95 1016.2
20260902074010 21 231 0.0 0.0 0.00 0.00 0.00 95 1016.2
20260902073603 21 231 0.0 0.0 0.00 0.00 0.00 95 1016.2
20260902073008 21 231 0.0 0.0 0.00 0.00 0.00 95 1016.1
20260902072508 21 231 0.0 0.0 0.00 0.00 0.00 95 1016.1
20260902072105 21 231 0.0 0.0 0.00 0.00 0.00 94 1016.1
20260902071512 21 231 0.0 0.0 0.00 0.00 0.00 94 1016.2
20260902071011 21 231 0.0 0.0 0.00 0.00 0.00 94 1016.2
20260902070602 21 231 0.0 0.0 0.00 0.00 0.00 94 1016.2
20260902070007 21 231 0.0 0.0 0.00 0.00 0.00 94 1016.2
20260902065511 21 231 0.0 0.0 0.00 0.00 0.00 94 1016.2
20260902065105 21 231 0.0 0.0 0.00 0.00 0.00 94 1016.2
20260902064503 21 231 0.0 0.0 0.00 0.00 0.00 94 1016.2
20260902064008 21 231 0.0 0.0 0.00 0.00 0.00 94 1016.2
20260902063602 21 231 0.0 0.0 0.00 0.00 0.00 94 1016.2
20260902063003 21 231 0.0 0.0 0.00 0.00 0.00 94 1016.3
20260902062509 21 231 0.0 0.0 0.00 0.00 0.00 94 1016.3
20260902062103 21 231 0.0 0.0 0.00 0.00 0.00 94 1016.3
20260902061505 22 231 0.0 0.0 0.00 0.00 0.00 94 1016.3
20260902061009 22 231 0.0 0.0 0.00 0.00 0.00 94 1016.2
20260902060602 22 231 0.0 0.0 0.00 0.00 0.00 94 1016.2
20260902060007 22 231 0.0 0.0 0.00 0.00 0.00 94 1016.3
20260902055508 22 231 0.0 0.0 0.00 0.00 0.00 94 1016.2
20260902055103 22 231 0.0 0.0 0.00 0.00 0.00 94 1016.1
20260902054503 22 231 0.0 0.0 0.00 0.00 0.00 94 1016.2
20260902054009 22 231 0.0 0.0 0.00 0.00 0.00 94 1016.1
20260902053603 22 231 0.0 0.0 0.00 0.00 0.00 94 1016.1
20260902053003 22 231 0.0 0.0 0.00 0.00 0.00 93 1016.2
20260902052509 22 231 0.0 0.0 0.00 0.00 0.00 93 1016.1
20260902052103 22 231 0.0 0.0 0.00 0.00 0.00 93 1016.1
20260902051502 22 231 0.0 0.0 0.00 0.00 0.00 93 1016.0
20260902051010 22 231 0.0 0.0 0.00 0.00 0.00 93 1016.0
20260902050606 22 231 0.0 0.0 0.00 0.00 0.00 93 1016.1
20260902050004 22 231 0.0 0.0 0.00 0.00 0.00 93 1016.1
20260902045510 22 231 0.0 1.6 0.00 0.00 0.00 93 1016.0
20260902045103 22 231 0.0 1.6 0.00 0.00 0.00 93 1015.9
20260902044501 22 231 0.0 0.0 0.00 0.00 0.00 93 1016.0
20260902044009 22 231 0.0 0.0 0.00 0.00 0.00 93 1016.0
20260902043602 22 231 0.0 0.0 0.00 0.00 0.00 93 1016.0
20260902043003 22 231 0.0 0.0 0.00 0.00 0.00 92 1015.8
20260902042510 22 231 0.0 0.0 0.00 0.00 0.00 92 1015.7
20260902042103 22 231 0.0 0.0 0.00 0.00 0.00 92 1015.8
20260902041505 22 231 0.0 0.0 0.00 0.00 0.00 92 1015.8
20260902041003 22 231 0.0 0.0 0.00 0.00 0.00 92 1015.8
20260902040503 22 231 0.0 0.0 0.00 0.00 0.00 92 1015.9
20260902040008 22 231 0.0 0.0 0.00 0.00 0.00 92 1016.0
20260902035602 23 231 0.0 0.0 0.00 0.00 0.00 91 1016.0
20260902035003 23 231 0.0 0.0 0.00 0.00 0.00 91 1016.0
20260902034509 23 231 0.0 0.0 0.00 0.00 0.00 91 1015.9
20260902034104 23 231 0.0 0.0 0.00 0.00 0.00 91 1015.8
20260902033502 23 231 0.0 0.0 0.00 0.00 0.00 91 1015.8
20260902033009 23 231 0.0 0.0 0.00 0.00 0.00 91 1015.8
20260902032602 23 231 0.0 0.0 0.00 0.00 0.00 91 1015.9
20260902032003 23 231 0.0 0.0 0.00 0.00 0.00 91 1015.8
20260902031509 23 231 0.0 0.0 0.00 0.00 0.00 91 1015.8
20260902031104 23 231 0.0 0.0 0.00 0.00 0.00 91 1015.7
20260902030503 23 231 0.0 0.0 0.00 0.00 0.00 90 1015.8
20260902030009 23 231 0.0 0.0 0.00 0.00 0.00 90 1015.8
20260902025603 23 231 0.0 0.0 0.00 0.00 0.00 90 1015.8
20260902025003 23 231 0.0 0.0 0.00 0.00 0.00 90 1015.8
20260902024512 23 231 0.0 0.0 0.00 0.00 0.00 90 1015.8
20260902024103 23 231 0.0 1.6 0.00 0.00 0.00 89 1015.8
20260902023503 23 231 0.0 1.6 0.00 0.00 0.00 89 1015.8
20260902023016 23 231 0.0 0.0 0.00 0.00 0.00 89 1015.7
20260902022606 23 231 0.0 0.0 0.00 0.00 0.00 89 1015.7
20260902022003 23 231 0.0 0.0 0.00 0.00 0.00 88 1015.7
20260902021508 23 231 0.0 0.0 0.00 0.00 0.00 88 1015.7
20260902021103 23 231 0.0 0.0 0.00 0.00 0.00 88 1015.6
20260902020505 24 231 0.0 0.0 0.00 0.00 0.00 88 1015.6